Time,TemperatureF,DewpointF,PressureIn,WindDirection,WindDirectionDegrees,WindSpeedMPH,WindSpeedGustMPH,Humidity,HourlyPrecipIn,Conditions,Clouds,dailyrainin,SoftwareType,DateUTC
2013-03-17 00:05:00,51.9,33.8,29.78,NE,49,4.0,5.0,50,0.00,,,0.00,Wunderground v.1.15,2013-03-17 06:05:00,
2013-03-17 00:10:00,51.8,33.7,29.77,NE,49,3.0,5.0,50,0.00,,,0.00,Wunderground v.1.15,2013-03-17 06:10:00,
2013-03-17 00:15:00,51.8,33.2,29.78,East,96,3.0,7.0,49,0.00,,,0.00,Wunderground v.1.15,2013-03-17 06:15:00,
2013-03-17 00:20:00,51.8,33.2,29.77,East,96,2.0,2.0,49,0.00,,,0.00,Wunderground v.1.15,2013-03-17 06:20:00,
2013-03-17 00:26:00,51.7,33.6,29.78,East,95,1.0,7.0,50,0.00,,,0.00,Wunderground v.1.15,2013-03-17 06:26:00,
2013-03-17 00:31:00,51.6,33.6,29.77,East,95,3.0,5.0,50,0.00,,,0.00,Wunderground v.1.15,2013-03-17 06:31:00,
2013-03-17 00:37:00,51.6,33.6,29.77,East,95,3.0,5.0,50,0.00,,,0.00,Wunderground v.1.15,2013-03-17 06:37:00,
2013-03-17 00:42:00,51.5,33.5,29.77,East,95,1.0,1.0,50,0.00,,,0.00,Wunderground v.1.15,2013-03-17 06:42:00,
2013-03-17 00:48:00,51.5,34.0,29.77,East,95,0.0,1.0,51,0.00,,,0.00,Wunderground v.1.15,2013-03-17 06:48:00,
2013-03-17 00:53:00,51.5,33.5,29.77,East,95,0.0,0.0,50,0.00,,,0.00,Wunderground v.1.15,2013-03-17 06:53:00,
2013-03-17 00:58:00,51.3,33.3,29.76,East,95,0.0,0.0,50,0.00,,,0.00,Wunderground v.1.15,2013-03-17 06:58:00,
2013-03-17 01:04:00,51.0,33.5,29.77,East,95,0.0,0.0,51,0.00,,,0.00,Wunderground v.1.15,2013-03-17 07:04:00,
2013-03-17 01:10:00,50.7,33.2,29.76,East,95,0.0,0.0,51,0.00,,,0.00,Wunderground v.1.15,2013-03-17 07:10:00,
2013-03-17 01:16:00,50.4,33.9,29.76,East,95,0.0,2.0,53,0.00,,,0.00,Wunderground v.1.15,2013-03-17 07:16:00,
2013-03-17 01:22:00,50.3,33.8,29.75,East,95,0.0,0.0,53,0.00,,,0.00,Wunderground v.1.15,2013-03-17 07:22:00,
2013-03-17 01:27:00,50.3,33.3,29.76,East,94,1.0,4.0,52,0.00,,,0.00,Wunderground v.1.15,2013-03-17 07:27:00,
2013-03-17 01:32:00,50.3,33.8,29.76,East,91,3.0,5.0,53,0.00,,,0.00,Wunderground v.1.15,2013-03-17 07:32:00,
2013-03-17 01:38:00,50.2,33.7,29.76,East,90,2.0,5.0,53,0.00,,,0.00,Wunderground v.1.15,2013-03-17 07:38:00,
2013-03-17 01:43:00,50.1,33.6,29.76,East,90,0.0,1.0,53,0.00,,,0.00,Wunderground v.1.15,2013-03-17 07:43:00,
2013-03-17 01:49:00,49.9,33.0,29.76,East,90,0.0,1.0,52,0.00,,,0.00,Wunderground v.1.15,2013-03-17 07:49:00,
2013-03-17 01:55:00,49.5,32.6,29.76,East,90,0.0,2.0,52,0.00,,,0.00,Wunderground v.1.15,2013-03-17 07:55:00,
2013-03-17 02:00:00,49.2,32.8,29.75,East,90,0.0,0.0,53,0.00,,,0.00,Wunderground v.1.15,2013-03-17 08:00:00,
2013-03-17 02:06:00,49.1,33.2,29.76,East,90,0.0,2.0,54,0.00,,,0.00,Wunderground v.1.15,2013-03-17 08:06:00,
2013-03-17 02:11:00,49.0,33.1,29.75,East,90,1.0,2.0,54,0.00,,,0.00,Wunderground v.1.15,2013-03-17 08:11:00,
2013-03-17 02:17:00,49.0,32.6,29.76,East,90,2.0,4.0,53,0.00,,,0.00,Wunderground v.1.15,2013-03-17 08:17:00,
2013-03-17 02:23:00,48.8,32.9,29.76,East,90,1.0,2.0,54,0.00,,,0.00,Wunderground v.1.15,2013-03-17 08:23:00,
2013-03-17 02:28:00,48.7,32.8,29.76,East,90,1.0,4.0,54,0.00,,,0.00,Wunderground v.1.15,2013-03-17 08:28:00,
2013-03-17 02:33:00,48.3,32.4,29.77,East,90,2.0,4.0,54,0.00,,,0.00,Wunderground v.1.15,2013-03-17 08:33:00,
2013-03-17 02:39:00,48.0,32.6,29.77,East,90,2.0,4.0,55,0.00,,,0.00,Wunderground v.1.15,2013-03-17 08:39:00,
2013-03-17 02:45:00,47.6,32.7,29.77,East,90,0.0,1.0,56,0.00,,,0.00,Wunderground v.1.15,2013-03-17 08:45:00,
2013-03-17 02:50:00,47.4,32.5,29.76,East,90,0.0,0.0,56,0.00,,,0.00,Wunderground v.1.15,2013-03-17 08:50:00,
2013-03-17 02:56:00,47.3,32.8,29.76,East,90,1.0,5.0,57,0.00,,,0.00,Wunderground v.1.15,2013-03-17 08:56:00,
2013-03-17 03:01:00,47.1,32.2,29.76,East,90,3.0,4.0,56,0.00,,,0.00,Wunderground v.1.15,2013-03-17 09:01:00,
2013-03-17 03:07:00,47.0,32.5,29.76,East,90,3.0,4.0,57,0.00,,,0.00,Wunderground v.1.15,2013-03-17 09:07:00,
2013-03-17 03:12:00,46.7,32.3,29.76,East,90,2.0,4.0,57,0.00,,,0.00,Wunderground v.1.15,2013-03-17 09:12:00,
2013-03-17 03:17:00,46.4,32.0,29.76,East,90,1.0,4.0,57,0.00,,,0.00,Wunderground v.1.15,2013-03-17 09:17:00,
2013-03-17 03:22:00,46.0,32.0,29.76,East,90,0.0,1.0,58,0.00,,,0.00,Wunderground v.1.15,2013-03-17 09:22:00,
2013-03-17 03:28:00,45.5,31.6,29.76,East,90,1.0,4.0,58,0.00,,,0.00,Wunderground v.1.15,2013-03-17 09:28:00,
2013-03-17 03:33:00,45.2,31.7,29.76,East,90,3.0,5.0,59,0.00,,,0.00,Wunderground v.1.15,2013-03-17 09:33:00,
2013-03-17 03:39:00,45.1,31.6,29.76,East,90,4.0,5.0,59,0.00,,,0.00,Wunderground v.1.15,2013-03-17 09:39:00,
2013-03-17 03:44:00,44.9,31.4,29.76,East,90,3.0,4.0,59,0.00,,,0.00,Wunderground v.1.15,2013-03-17 09:44:00,
2013-03-17 03:50:00,44.7,30.8,29.76,East,90,1.0,1.0,58,0.00,,,0.00,Wunderground v.1.15,2013-03-17 09:50:00,
2013-03-17 03:55:00,44.2,30.8,29.76,East,90,1.0,2.0,59,0.00,,,0.00,Wunderground v.1.15,2013-03-17 09:55:00,
2013-03-17 04:00:00,43.8,30.8,29.77,East,90,3.0,4.0,60,0.00,,,0.00,Wunderground v.1.15,2013-03-17 10:00:00,
2013-03-17 04:06:00,43.6,31.4,29.76,East,90,4.0,5.0,62,0.00,,,0.00,Wunderground v.1.15,2013-03-17 10:06:00,
2013-03-17 04:12:00,44.1,31.9,29.77,East,90,3.0,4.0,62,0.00,,,0.00,Wunderground v.1.15,2013-03-17 10:12:00,
2013-03-17 04:17:00,44.0,31.4,29.77,East,90,1.0,4.0,61,0.00,,,0.00,Wunderground v.1.15,2013-03-17 10:17:00,
2013-03-17 04:22:00,43.8,31.6,29.77,East,90,0.0,0.0,62,0.00,,,0.00,Wunderground v.1.15,2013-03-17 10:22:00,
2013-03-17 04:27:00,43.8,31.6,29.76,East,90,0.0,0.0,62,0.00,,,0.00,Wunderground v.1.15,2013-03-17 10:27:00,
2013-03-17 04:33:00,43.8,31.6,29.76,East,90,0.0,0.0,62,0.00,,,0.00,Wunderground v.1.15,2013-03-17 10:33:00,
2013-03-17 04:39:00,43.6,31.0,29.76,East,90,1.0,4.0,61,0.00,,,0.00,Wunderground v.1.15,2013-03-17 10:39:00,
2013-03-17 04:45:00,43.3,31.1,29.76,East,90,1.0,1.0,62,0.00,,,0.00,Wunderground v.1.15,2013-03-17 10:45:00,
2013-03-17 04:50:00,43.1,31.0,29.76,East,90,0.0,1.0,62,0.00,,,0.00,Wunderground v.1.15,2013-03-17 10:50:00,
2013-03-17 04:55:00,42.8,31.1,29.76,East,90,1.0,7.0,63,0.00,,,0.00,Wunderground v.1.15,2013-03-17 10:55:00,
2013-03-17 05:00:00,43.3,31.9,29.76,East,90,1.0,1.0,64,0.00,,,0.00,Wunderground v.1.15,2013-03-17 11:00:00,
2013-03-17 05:05:00,43.8,32.4,29.76,East,90,0.0,1.0,64,0.00,,,0.00,Wunderground v.1.15,2013-03-17 11:05:00,
2013-03-17 05:11:00,43.9,31.7,29.76,East,92,1.0,1.0,62,0.00,,,0.00,Wunderground v.1.15,2013-03-17 11:11:00,
2013-03-17 05:16:00,43.6,31.4,29.76,East,92,0.0,1.0,62,0.00,,,0.00,Wunderground v.1.15,2013-03-17 11:16:00,
2013-03-17 05:22:00,43.1,31.4,29.77,East,92,0.0,0.0,63,0.00,,,0.00,Wunderground v.1.15,2013-03-17 11:22:00,
2013-03-17 05:28:00,42.6,31.3,29.77,East,92,0.0,2.0,64,0.00,,,0.00,Wunderground v.1.15,2013-03-17 11:28:00,
2013-03-17 05:34:00,42.2,30.9,29.76,East,92,0.0,0.0,64,0.00,,,0.00,Wunderground v.1.15,2013-03-17 11:34:00,
2013-03-17 05:39:00,42.1,31.2,29.76,East,92,0.0,0.0,65,0.00,,,0.00,Wunderground v.1.15,2013-03-17 11:39:00,
2013-03-17 05:44:00,42.0,31.5,29.76,East,92,0.0,0.0,66,0.00,,,0.00,Wunderground v.1.15,2013-03-17 11:44:00,
2013-03-17 05:50:00,41.9,31.0,29.76,East,92,0.0,0.0,65,0.00,,,0.00,Wunderground v.1.15,2013-03-17 11:50:00,
2013-03-17 05:55:00,41.5,30.6,29.76,East,92,0.0,0.0,65,0.00,,,0.00,Wunderground v.1.15,2013-03-17 11:55:00,
2013-03-17 06:00:00,41.5,31.4,29.76,East,92,0.0,0.0,67,0.00,,,0.00,Wunderground v.1.15,2013-03-17 12:00:00,
2013-03-17 06:06:00,41.7,31.5,29.76,East,92,0.0,1.0,67,0.00,,,0.00,Wunderground v.1.15,2013-03-17 12:06:00,
2013-03-17 06:12:00,41.6,30.7,29.76,East,92,0.0,0.0,65,0.00,,,0.00,Wunderground v.1.15,2013-03-17 12:12:00,
2013-03-17 06:18:00,41.1,30.6,29.76,East,92,0.0,1.0,66,0.00,,,0.00,Wunderground v.1.15,2013-03-17 12:18:00,
2013-03-17 06:23:00,40.9,30.4,29.76,East,92,0.0,1.0,66,0.00,,,0.00,Wunderground v.1.15,2013-03-17 12:23:00,
2013-03-17 06:29:00,40.7,30.2,29.76,East,92,0.0,1.0,66,0.00,,,0.00,Wunderground v.1.15,2013-03-17 12:29:00,
2013-03-17 06:34:00,40.5,30.0,29.76,East,92,0.0,2.0,66,0.00,,,0.00,Wunderground v.1.15,2013-03-17 12:34:00,
2013-03-17 06:40:00,40.2,30.1,29.76,East,92,0.0,0.0,67,0.00,,,0.00,Wunderground v.1.15,2013-03-17 12:40:00,
2013-03-17 06:45:00,40.1,30.4,29.76,East,92,0.0,1.0,68,0.00,,,0.00,Wunderground v.1.15,2013-03-17 12:45:00,
2013-03-17 06:50:00,40.2,30.1,29.77,East,92,0.0,0.0,67,0.00,,,0.00,Wunderground v.1.15,2013-03-17 12:50:00,
2013-03-17 06:56:00,40.2,30.5,29.77,East,92,0.0,4.0,68,0.00,,,0.00,Wunderground v.1.15,2013-03-17 12:56:00,
2013-03-17 07:02:00,40.0,30.3,29.77,East,92,0.0,0.0,68,0.00,,,0.00,Wunderground v.1.15,2013-03-17 13:02:00,
2013-03-17 07:08:00,39.8,30.5,29.77,East,92,0.0,0.0,69,0.00,,,0.00,Wunderground v.1.15,2013-03-17 13:08:00,
2013-03-17 07:14:00,39.8,30.5,29.77,East,92,0.0,1.0,69,0.00,,,0.00,Wunderground v.1.15,2013-03-17 13:14:00,
2013-03-17 07:19:00,40.0,31.0,29.77,East,92,0.0,1.0,70,0.00,,,0.00,Wunderground v.1.15,2013-03-17 13:19:00,
2013-03-17 07:24:00,40.2,30.8,29.77,East,92,0.0,0.0,69,0.00,,,0.00,Wunderground v.1.15,2013-03-17 13:24:00,
2013-03-17 07:30:00,40.4,30.3,29.77,East,92,0.0,0.0,67,0.00,,,0.00,Wunderground v.1.15,2013-03-17 13:30:00,
2013-03-17 07:35:00,40.2,30.1,29.77,East,92,0.0,2.0,67,0.00,,,0.00,Wunderground v.1.15,2013-03-17 13:35:00,
2013-03-17 07:41:00,40.0,29.9,29.77,East,92,1.0,5.0,67,0.00,,,0.00,Wunderground v.1.15,2013-03-17 13:41:00,
2013-03-17 07:47:00,40.3,30.2,29.78,East,92,3.0,5.0,67,0.00,,,0.00,Wunderground v.1.15,2013-03-17 13:47:00,
2013-03-17 07:52:00,40.7,30.6,29.78,East,92,2.0,3.0,67,0.00,,,0.00,Wunderground v.1.15,2013-03-17 13:52:00,
2013-03-17 07:58:00,41.1,30.2,29.77,East,92,0.0,3.0,65,0.00,,,0.00,Wunderground v.1.15,2013-03-17 13:58:00,
2013-03-17 08:03:00,41.4,30.5,29.77,East,92,0.0,0.0,65,0.00,,,0.00,Wunderground v.1.15,2013-03-17 14:03:00,
2013-03-17 08:09:00,41.8,30.5,29.77,East,92,0.0,0.0,64,0.00,,,0.00,Wunderground v.1.15,2013-03-17 14:09:00,
2013-03-17 08:15:00,42.5,31.2,29.78,East,92,0.0,1.0,64,0.00,,,0.00,Wunderground v.1.15,2013-03-17 14:15:00,
2013-03-17 08:20:00,43.3,31.5,29.78,East,94,0.0,0.0,63,0.00,,,0.00,Wunderground v.1.15,2013-03-17 14:20:00,
2013-03-17 08:26:00,43.9,32.1,29.77,East,94,2.0,2.0,63,0.00,,,0.00,Wunderground v.1.15,2013-03-17 14:26:00,
2013-03-17 08:31:00,45.0,32.3,29.78,East,94,2.0,2.0,61,0.00,,,0.00,Wunderground v.1.15,2013-03-17 14:31:00,
2013-03-17 08:36:00,45.7,32.6,29.77,East,94,0.0,2.0,60,0.00,,,0.00,Wunderground v.1.15,2013-03-17 14:36:00,
2013-03-17 08:41:00,46.2,32.7,29.77,East,94,0.0,0.0,59,0.00,,,0.00,Wunderground v.1.15,2013-03-17 14:41:00,
2013-03-17 08:47:00,46.5,32.5,29.77,East,94,0.0,1.0,58,0.00,,,0.00,Wunderground v.1.15,2013-03-17 14:47:00,
2013-03-17 08:53:00,46.4,32.4,29.77,East,94,0.0,4.0,58,0.00,,,0.00,Wunderground v.1.15,2013-03-17 14:53:00,
2013-03-17 08:58:00,46.2,32.7,29.78,East,94,0.0,4.0,59,0.00,,,0.00,Wunderground v.1.15,2013-03-17 14:58:00,
2013-03-17 09:04:00,46.3,32.7,29.77,East,94,0.0,1.0,59,0.00,,,0.00,Wunderground v.1.15,2013-03-17 15:04:00,
2013-03-17 09:09:00,46.9,32.9,29.77,East,94,1.0,7.0,58,0.00,,,0.00,Wunderground v.1.15,2013-03-17 15:09:00,
2013-03-17 09:15:00,47.9,32.9,29.77,ESE,114,3.0,4.0,56,0.00,,,0.00,Wunderground v.1.15,2013-03-17 15:15:00,
2013-03-17 09:21:00,48.7,33.2,29.77,SW,232,5.0,7.0,55,0.00,,,0.00,Wunderground v.1.15,2013-03-17 15:21:00,
2013-03-17 09:27:00,49.2,33.3,29.77,SW,231,6.0,7.0,54,0.00,,,0.00,Wunderground v.1.15,2013-03-17 15:27:00,
2013-03-17 09:32:00,49.4,33.4,29.77,SW,234,5.0,5.0,54,0.00,,,0.00,Wunderground v.1.15,2013-03-17 15:32:00,
2013-03-17 09:38:00,49.8,33.8,29.77,SW,233,5.0,7.0,54,0.00,,,0.00,Wunderground v.1.15,2013-03-17 15:38:00,
2013-03-17 09:44:00,49.7,33.7,29.76,SW,215,5.0,7.0,54,0.00,,,0.00,Wunderground v.1.15,2013-03-17 15:44:00,
2013-03-17 09:50:00,49.9,33.9,29.77,SW,214,6.0,6.0,54,0.00,,,0.00,Wunderground v.1.15,2013-03-17 15:50:00,
2013-03-17 09:55:00,50.4,33.9,29.77,SW,231,6.0,6.0,53,0.00,,,0.00,Wunderground v.1.15,2013-03-17 15:55:00,
2013-03-17 10:00:00,50.7,33.7,29.76,SW,232,5.0,6.0,52,0.00,,,0.00,Wunderground v.1.15,2013-03-17 16:00:00,
2013-03-17 10:06:00,50.9,33.9,29.76,SW,233,6.0,7.0,52,0.00,,,0.00,Wunderground v.1.15,2013-03-17 16:06:00,
2013-03-17 10:11:00,51.2,34.2,29.76,SW,232,6.0,7.0,52,0.00,,,0.00,Wunderground v.1.15,2013-03-17 16:11:00,
2013-03-17 10:16:00,51.1,33.6,29.76,SSW,213,6.0,10.0,51,0.00,,,0.00,Wunderground v.1.15,2013-03-17 16:16:00,
2013-03-17 10:21:00,51.4,33.4,29.76,SW,229,7.0,9.0,50,0.00,,,0.00,Wunderground v.1.15,2013-03-17 16:21:00,
2013-03-17 10:27:00,51.5,33.5,29.76,SW,225,6.0,9.0,50,0.00,,,0.00,Wunderground v.1.15,2013-03-17 16:27:00,
2013-03-17 10:33:00,51.8,33.7,29.76,SSW,213,7.0,12.0,50,0.00,,,0.00,Wunderground v.1.15,2013-03-17 16:33:00,
2013-03-17 10:38:00,52.1,33.5,29.76,SW,230,7.0,12.0,49,0.00,,,0.00,Wunderground v.1.15,2013-03-17 16:38:00,
2013-03-17 10:43:00,52.6,33.5,29.76,SSW,207,5.0,7.0,48,0.00,,,0.00,Wunderground v.1.15,2013-03-17 16:43:00,
2013-03-17 10:49:00,53.3,33.0,29.75,SW,232,4.0,9.0,46,0.00,,,0.00,Wunderground v.1.15,2013-03-17 16:49:00,
2013-03-17 10:54:00,53.3,33.0,29.76,SW,220,6.0,7.0,46,0.00,,,0.00,Wunderground v.1.15,2013-03-17 16:54:00,
2013-03-17 10:59:00,53.4,33.1,29.78,SW,221,4.0,7.0,46,0.00,,,0.00,Wunderground v.1.15,2013-03-17 16:59:00,
2013-03-17 11:04:00,53.6,33.3,29.78,SW,221,2.0,4.0,46,0.00,,,0.00,Wunderground v.1.15,2013-03-17 17:04:00,
2013-03-17 11:10:00,53.5,33.2,29.78,SW,221,1.0,1.0,46,0.00,,,0.00,Wunderground v.1.15,2013-03-17 17:10:00,
2013-03-17 11:16:00,53.7,32.8,29.78,SW,221,0.0,3.0,45,0.00,,,0.00,Wunderground v.1.15,2013-03-17 17:16:00,
2013-03-17 11:21:00,53.8,32.9,29.78,SW,221,0.0,0.0,45,0.00,,,0.00,Wunderground v.1.15,2013-03-17 17:21:00,
2013-03-17 11:27:00,53.7,32.8,29.78,SW,221,0.0,0.0,45,0.00,,,0.00,Wunderground v.1.15,2013-03-17 17:27:00,
2013-03-17 11:32:00,53.5,33.2,29.78,SW,221,0.0,3.0,46,0.00,,,0.00,Wunderground v.1.15,2013-03-17 17:32:00,
2013-03-17 11:38:00,53.0,34.8,29.79,SSW,210,1.0,4.0,50,0.00,,,0.00,Wunderground v.1.15,2013-03-17 17:38:00,
2013-03-17 11:43:00,52.4,36.7,29.80,SSW,213,2.0,3.0,55,0.00,,,0.00,Wunderground v.1.15,2013-03-17 17:43:00,
2013-03-17 11:48:00,52.0,36.3,29.80,NW,325,4.0,13.0,55,0.00,,,0.00,Wunderground v.1.15,2013-03-17 17:48:00,
2013-03-17 11:54:00,51.7,36.9,29.78,NNW,333,6.0,6.0,57,0.00,,,0.00,Wunderground v.1.15,2013-03-17 17:54:00,
2013-03-17 12:00:00,52.6,36.4,29.78,North,5,3.0,4.0,54,0.00,,,0.00,Wunderground v.1.15,2013-03-17 18:00:00,
2013-03-17 12:06:00,54.9,38.1,29.77,NNE,19,5.0,11.0,53,0.00,,,0.00,Wunderground v.1.15,2013-03-17 18:06:00,
2013-03-17 12:11:00,56.4,35.9,29.76,NNE,30,6.0,6.0,46,0.00,,,0.00,Wunderground v.1.15,2013-03-17 18:11:00,
2013-03-17 12:16:00,57.3,35.0,29.75,NNE,30,6.0,8.0,43,0.00,,,0.00,Wunderground v.1.15,2013-03-17 18:16:00,
2013-03-17 12:22:00,57.8,34.8,29.75,NNE,28,5.0,5.0,42,0.00,,,0.00,Wunderground v.1.15,2013-03-17 18:22:00,
2013-03-17 12:28:00,59.1,34.1,29.75,NE,44,5.0,7.0,39,0.00,,,0.00,Wunderground v.1.15,2013-03-17 18:28:00,
2013-03-17 12:33:00,59.0,32.7,29.75,NNE,15,6.0,9.0,37,0.00,,,0.00,Wunderground v.1.15,2013-03-17 18:33:00,
2013-03-17 12:39:00,58.5,33.0,29.74,NNE,31,6.0,9.0,38,0.00,,,0.00,Wunderground v.1.15,2013-03-17 18:39:00,
2013-03-17 12:44:00,58.9,33.3,29.74,NE,40,5.0,6.0,38,0.00,,,0.00,Wunderground v.1.15,2013-03-17 18:44:00,
2013-03-17 12:50:00,60.3,31.0,29.73,NNE,17,6.0,14.0,33,0.00,,,0.00,Wunderground v.1.15,2013-03-17 18:50:00,
2013-03-17 12:56:00,60.6,30.6,29.73,NNW,333,10.0,14.0,32,0.00,,,0.00,Wunderground v.1.15,2013-03-17 18:56:00,
2013-03-17 13:02:00,61.4,30.5,29.73,NNE,28,8.0,8.0,31,0.00,,,0.00,Wunderground v.1.15,2013-03-17 19:02:00,
2013-03-17 13:07:00,60.9,34.4,29.73,ENE,78,6.0,10.0,37,0.00,,,0.00,Wunderground v.1.15,2013-03-17 19:07:00,
2013-03-17 13:12:00,59.7,34.0,29.72,ENE,74,7.0,10.0,38,0.00,,,0.00,Wunderground v.1.15,2013-03-17 19:12:00,
2013-03-17 13:18:00,59.3,34.3,29.71,ENE,71,7.0,11.0,39,0.00,,,0.00,Wunderground v.1.15,2013-03-17 19:18:00,
2013-03-17 13:23:00,59.6,34.6,29.70,East,96,6.0,12.0,39,0.00,,,0.00,Wunderground v.1.15,2013-03-17 19:23:00,
2013-03-17 13:28:00,59.5,33.9,29.70,ESE,111,7.0,12.0,38,0.00,,,0.00,Wunderground v.1.15,2013-03-17 19:28:00,
2013-03-17 13:33:00,59.0,33.4,29.69,East,101,6.0,8.0,38,0.00,,,0.00,Wunderground v.1.15,2013-03-17 19:33:00,
2013-03-17 13:39:00,59.8,33.5,29.68,ESE,116,5.0,9.0,37,0.00,,,0.00,Wunderground v.1.15,2013-03-17 19:39:00,
2013-03-17 13:44:00,60.1,33.0,29.68,SE,127,5.0,8.0,36,0.00,,,0.00,Wunderground v.1.15,2013-03-17 19:44:00,
2013-03-17 13:50:00,60.6,33.5,29.67,East,88,2.0,3.0,36,0.00,,,0.00,Wunderground v.1.15,2013-03-17 19:50:00,
2013-03-17 13:56:00,62.2,33.5,29.66,SW,222,2.0,7.0,34,0.00,,,0.00,Wunderground v.1.15,2013-03-17 19:56:00,
2013-03-17 14:02:00,64.4,24.7,29.66,NW,326,6.0,15.0,22,0.00,,,0.00,Wunderground v.1.15,2013-03-17 20:02:00,
2013-03-17 14:07:00,67.1,23.4,29.65,NNW,330,12.0,20.0,19,0.00,,,0.00,Wunderground v.1.15,2013-03-17 20:07:00,
2013-03-17 14:13:00,67.8,22.7,29.65,NW,320,17.0,22.0,18,0.00,,,0.00,Wunderground v.1.15,2013-03-17 20:13:00,
2013-03-17 14:19:00,68.0,22.9,29.65,NW,304,16.0,22.0,18,0.00,,,0.00,Wunderground v.1.15,2013-03-17 20:19:00,
2013-03-17 14:24:00,69.0,22.3,29.64,NNW,335,16.0,23.0,17,0.00,,,0.00,Wunderground v.1.15,2013-03-17 20:24:00,
2013-03-17 14:30:00,69.3,19.6,29.64,NW,304,17.0,17.0,15,0.00,,,0.00,Wunderground v.1.15,2013-03-17 20:30:00,
2013-03-17 14:35:00,69.7,16.6,29.64,NW,313,17.0,21.0,13,0.00,,,0.00,Wunderground v.1.15,2013-03-17 20:35:00,
2013-03-17 14:40:00,69.2,16.2,29.64,NW,313,18.0,18.0,13,0.00,,,0.00,Wunderground v.1.15,2013-03-17 20:40:00,
2013-03-17 14:46:00,69.8,18.4,29.63,NW,316,15.0,18.0,14,0.00,,,0.00,Wunderground v.1.15,2013-03-17 20:46:00,
2013-03-17 14:51:00,70.5,17.2,29.63,NW,304,13.0,13.0,13,0.00,,,0.00,Wunderground v.1.15,2013-03-17 20:51:00,
2013-03-17 14:56:00,69.6,16.5,29.63,NW,317,14.0,16.0,13,0.00,,,0.00,Wunderground v.1.15,2013-03-17 20:56:00,
2013-03-17 15:01:00,69.3,14.4,29.62,NNW,332,14.0,17.0,12,0.00,,,0.00,Wunderground v.1.15,2013-03-17 21:01:00,
2013-03-17 15:06:00,68.8,12.1,29.62,NNW,337,16.0,19.0,11,0.00,,,0.00,Wunderground v.1.15,2013-03-17 21:06:00,
2013-03-17 15:11:00,68.9,10.0,29.62,NNW,327,17.0,17.0,10,0.00,,,0.00,Wunderground v.1.15,2013-03-17 21:11:00,
2013-03-17 15:17:00,69.6,10.5,29.62,NNW,329,17.0,21.0,10,0.00,,,0.00,Wunderground v.1.15,2013-03-17 21:17:00,
2013-03-17 15:22:00,69.7,10.6,29.63,NNW,331,17.0,24.0,10,0.00,,,0.00,Wunderground v.1.15,2013-03-17 21:22:00,
2013-03-17 15:28:00,69.2,7.9,29.63,NNW,337,19.0,28.0,9,0.00,,,0.00,Wunderground v.1.15,2013-03-17 21:28:00,
2013-03-17 15:34:00,69.4,8.0,29.62,North,355,18.0,28.0,9,0.00,,,0.00,Wunderground v.1.15,2013-03-17 21:34:00,
2013-03-17 15:40:00,70.6,11.3,29.62,NW,311,14.0,14.0,10,0.00,,,0.00,Wunderground v.1.15,2013-03-17 21:40:00,
2013-03-17 15:45:00,70.5,8.9,29.62,NW,325,15.0,21.0,9,0.00,,,0.00,Wunderground v.1.15,2013-03-17 21:45:00,
2013-03-17 15:51:00,69.9,8.4,29.61,NW,311,17.0,20.0,9,0.00,,,0.00,Wunderground v.1.15,2013-03-17 21:51:00,
2013-03-17 15:56:00,70.5,11.2,29.62,WNW,294,17.0,20.0,10,0.00,,,0.00,Wunderground v.1.15,2013-03-17 21:56:00,
2013-03-17 16:01:00,71.1,9.3,29.61,WNW,293,18.0,18.0,9,0.00,,,0.00,Wunderground v.1.15,2013-03-17 22:01:00,
2013-03-17 16:06:00,70.3,11.1,29.62,NW,321,17.0,18.0,10,0.00,,,0.00,Wunderground v.1.15,2013-03-17 22:06:00,
2013-03-17 16:11:00,69.9,10.8,29.62,NNW,329,17.0,21.0,10,0.00,,,0.00,Wunderground v.1.15,2013-03-17 22:11:00,
2013-03-17 16:17:00,69.3,10.3,29.62,WNW,298,17.0,21.0,10,0.00,,,0.00,Wunderground v.1.15,2013-03-17 22:17:00,
2013-03-17 16:22:00,69.7,10.6,29.62,NW,323,16.0,17.0,10,0.00,,,0.00,Wunderground v.1.15,2013-03-17 22:22:00,
2013-03-17 16:28:00,70.9,9.2,29.61,WNW,293,15.0,20.0,9,0.00,,,0.00,Wunderground v.1.15,2013-03-17 22:28:00,
2013-03-17 16:33:00,71.5,12.0,29.62,WNW,299,15.0,23.0,10,0.00,,,0.00,Wunderground v.1.15,2013-03-17 22:33:00,
2013-03-17 16:38:00,71.5,9.6,29.62,WNW,296,16.0,23.0,9,0.00,,,0.00,Wunderground v.1.15,2013-03-17 22:38:00,
2013-03-17 16:43:00,71.3,9.5,29.62,WNW,296,16.0,19.0,9,0.00,,,0.00,Wunderground v.1.15,2013-03-17 22:43:00,
2013-03-17 16:48:00,71.3,9.5,29.61,NW,324,15.0,19.0,9,0.00,,,0.00,Wunderground v.1.15,2013-03-17 22:48:00,
2013-03-17 16:53:00,71.0,11.6,29.61,NW,326,14.0,16.0,10,0.00,,,0.00,Wunderground v.1.15,2013-03-17 22:53:00,
2013-03-17 16:59:00,70.8,11.5,29.61,WNW,294,13.0,19.0,10,0.00,,,0.00,Wunderground v.1.15,2013-03-17 22:59:00,
2013-03-17 17:05:00,70.8,9.1,29.61,NW,313,14.0,20.0,9,0.00,,,0.00,Wunderground v.1.15,2013-03-17 23:05:00,
2013-03-17 17:10:00,70.8,6.5,29.61,WNW,286,16.0,19.0,8,0.00,,,0.00,Wunderground v.1.15,2013-03-17 23:10:00,
2013-03-17 17:15:00,70.6,3.4,29.61,NNW,329,18.0,24.0,7,0.00,,,0.00,Wunderground v.1.15,2013-03-17 23:15:00,
2013-03-17 17:21:00,70.2,3.1,29.60,NW,324,17.0,24.0,7,0.00,,,0.00,Wunderground v.1.15,2013-03-17 23:21:00,
2013-03-17 17:27:00,70.3,6.1,29.61,NW,304,15.0,24.0,8,0.00,,,0.00,Wunderground v.1.15,2013-03-17 23:27:00,
2013-03-17 17:32:00,70.9,3.6,29.61,NW,313,13.0,16.0,7,0.00,,,0.00,Wunderground v.1.15,2013-03-17 23:32:00,
2013-03-17 17:38:00,70.5,3.3,29.61,WNW,300,16.0,28.0,7,0.00,,,0.00,Wunderground v.1.15,2013-03-17 23:38:00,
2013-03-17 17:44:00,70.5,0.0,29.61,WNW,303,17.0,25.0,6,0.00,,,0.00,Wunderground v.1.15,2013-03-17 23:44:00,
2013-03-17 17:49:00,70.1,-4.1,29.61,NW,322,18.0,25.0,5,0.00,,,0.00,Wunderground v.1.15,2013-03-17 23:49:00,
2013-03-17 17:54:00,69.5,-0.7,29.61,NW,313,18.0,25.0,6,0.00,,,0.00,Wunderground v.1.15,2013-03-17 23:54:00,
2013-03-17 17:59:00,68.9,2.2,29.61,NW,313,17.0,25.0,7,0.00,,,0.00,Wunderground v.1.15,2013-03-17 23:59:00,
2013-03-17 18:05:00,68.6,1.9,29.62,NW,319,16.0,21.0,7,0.00,,,0.00,Wunderground v.1.15,2013-03-18 00:05:00,
2013-03-17 18:11:00,68.4,-1.5,29.61,NW,309,14.0,15.0,6,0.00,,,0.00,Wunderground v.1.15,2013-03-18 00:11:00,
2013-03-17 18:17:00,68.5,-9.8,29.62,WNW,300,14.0,17.0,4,0.00,,,0.00,Wunderground v.1.15,2013-03-18 00:17:00,
2013-03-17 18:22:00,68.4,-15.7,29.62,NW,306,18.0,22.0,3,0.00,,,0.00,Wunderground v.1.15,2013-03-18 00:22:00,
2013-03-17 18:28:00,68.0,-10.2,29.62,WNW,287,19.0,22.0,4,0.00,,,0.00,Wunderground v.1.15,2013-03-18 00:28:00,
2013-03-17 18:33:00,67.9,-16.0,29.63,NW,319,16.0,19.0,3,0.00,,,0.00,Wunderground v.1.15,2013-03-18 00:33:00,
2013-03-17 18:38:00,67.7,-16.1,29.63,WNW,295,15.0,19.0,3,0.00,,,0.00,Wunderground v.1.15,2013-03-18 00:38:00,
2013-03-17 18:44:00,67.4,-16.3,29.63,NNW,332,13.0,15.0,3,0.00,,,0.00,Wunderground v.1.15,2013-03-18 00:44:00,
2013-03-17 18:49:00,67.1,-10.8,29.64,WNW,290,13.0,15.0,4,0.00,,,0.00,Wunderground v.1.15,2013-03-18 00:49:00,
2013-03-17 18:55:00,66.5,-11.2,29.64,NW,311,14.0,20.0,4,0.00,,,0.00,Wunderground v.1.15,2013-03-18 00:55:00,
2013-03-17 19:00:00,66.1,-11.5,29.64,WNW,292,14.0,22.0,4,0.00,,,0.00,Wunderground v.1.15,2013-03-18 01:00:00,
2013-03-17 19:06:00,65.5,-7.4,29.64,WNW,302,14.0,22.0,5,0.00,,,0.00,Wunderground v.1.15,2013-03-18 01:06:00,
2013-03-17 19:11:00,65.1,-7.7,29.64,NNW,331,14.0,15.0,5,0.00,,,0.00,Wunderground v.1.15,2013-03-18 01:11:00,
2013-03-17 19:17:00,64.7,-8.0,29.64,NNW,340,13.0,15.0,5,0.00,,,0.00,Wunderground v.1.15,2013-03-18 01:17:00,
2013-03-17 19:22:00,64.4,-8.2,29.64,NW,323,12.0,13.0,5,0.00,,,0.00,Wunderground v.1.15,2013-03-18 01:22:00,
2013-03-17 19:27:00,64.0,-8.5,29.65,NW,317,10.0,14.0,5,0.00,,,0.00,Wunderground v.1.15,2013-03-18 01:27:00,
2013-03-17 19:33:00,63.8,-4.8,29.65,WNW,296,11.0,16.0,6,0.00,,,0.00,Wunderground v.1.15,2013-03-18 01:33:00,
2013-03-17 19:39:00,63.5,-5.1,29.65,NW,314,10.0,16.0,6,0.00,,,0.00,Wunderground v.1.15,2013-03-18 01:39:00,
2013-03-17 19:44:00,63.2,-5.3,29.65,NW,313,9.0,12.0,6,0.00,,,0.00,Wunderground v.1.15,2013-03-18 01:44:00,
2013-03-17 19:50:00,62.8,-5.6,29.66,NW,322,9.0,10.0,6,0.00,,,0.00,Wunderground v.1.15,2013-03-18 01:50:00,
2013-03-17 19:55:00,62.3,-2.7,29.66,NW,325,8.0,10.0,7,0.00,,,0.00,Wunderground v.1.15,2013-03-18 01:55:00,
2013-03-17 20:00:00,62.2,-2.8,29.67,NW,324,8.0,12.0,7,0.00,,,0.00,Wunderground v.1.15,2013-03-18 02:00:00,
2013-03-17 20:06:00,62.0,-2.9,29.67,NW,321,9.0,12.0,7,0.00,,,0.00,Wunderground v.1.15,2013-03-18 02:06:00,
2013-03-17 20:11:00,61.7,-3.2,29.67,NW,323,8.0,10.0,7,0.00,,,0.00,Wunderground v.1.15,2013-03-18 02:11:00,
2013-03-17 20:17:00,61.3,-0.6,29.68,NW,321,7.0,10.0,8,0.00,,,0.00,Wunderground v.1.15,2013-03-18 02:17:00,
2013-03-17 20:22:00,60.7,-1.1,29.68,NW,321,5.0,6.0,8,0.00,,,0.00,Wunderground v.1.15,2013-03-18 02:22:00,
2013-03-17 20:28:00,60.1,-1.5,29.68,NW,321,4.0,7.0,8,0.00,,,0.00,Wunderground v.1.15,2013-03-18 02:28:00,
2013-03-17 20:33:00,59.6,-1.9,29.69,NW,321,5.0,6.0,8,0.00,,,0.00,Wunderground v.1.15,2013-03-18 02:33:00,
2013-03-17 20:38:00,59.1,0.2,29.69,NW,319,5.0,7.0,9,0.00,,,0.00,Wunderground v.1.15,2013-03-18 02:38:00,
2013-03-17 20:44:00,58.6,-0.2,29.69,NW,318,5.0,8.0,9,0.00,,,0.00,Wunderground v.1.15,2013-03-18 02:44:00,
2013-03-17 20:50:00,58.2,-0.5,29.69,NW,316,7.0,8.0,9,0.00,,,0.00,Wunderground v.1.15,2013-03-18 02:50:00,
2013-03-17 20:55:00,57.8,-0.8,29.70,NW,317,6.0,8.0,9,0.00,,,0.00,Wunderground v.1.15,2013-03-18 02:55:00,
2013-03-17 21:00:00,57.5,-1.0,29.70,NW,317,6.0,7.0,9,0.00,,,0.00,Wunderground v.1.15,2013-03-18 03:00:00,
2013-03-17 21:06:00,57.0,-1.4,29.71,NW,324,6.0,7.0,9,0.00,,,0.00,Wunderground v.1.15,2013-03-18 03:06:00,
2013-03-17 21:12:00,57.0,-1.4,29.71,NNW,342,6.0,7.0,9,0.00,,,0.00,Wunderground v.1.15,2013-03-18 03:12:00,
2013-03-17 21:17:00,56.8,-1.5,29.72,NNW,331,6.0,9.0,9,0.00,,,0.00,Wunderground v.1.15,2013-03-18 03:17:00,
2013-03-17 21:23:00,56.1,0.2,29.72,NNW,345,6.0,11.0,10,0.00,,,0.00,Wunderground v.1.15,2013-03-18 03:23:00,
2013-03-17 21:28:00,55.9,0.0,29.72,NNW,344,6.0,11.0,10,0.00,,,0.00,Wunderground v.1.15,2013-03-18 03:28:00,
2013-03-17 21:33:00,56.3,0.3,29.73,NNW,341,6.0,7.0,10,0.00,,,0.00,Wunderground v.1.15,2013-03-18 03:33:00,
2013-03-17 21:39:00,56.5,0.5,29.73,North,350,7.0,8.0,10,0.00,,,0.00,Wunderground v.1.15,2013-03-18 03:39:00,
2013-03-17 21:44:00,56.4,0.4,29.74,NNW,348,7.0,10.0,10,0.00,,,0.00,Wunderground v.1.15,2013-03-18 03:44:00,
2013-03-17 21:50:00,56.1,2.2,29.74,NNW,345,6.0,9.0,11,0.00,,,0.00,Wunderground v.1.15,2013-03-18 03:50:00,
2013-03-17 21:55:00,55.7,1.9,29.74,NNW,344,6.0,9.0,11,0.00,,,0.00,Wunderground v.1.15,2013-03-18 03:55:00,
2013-03-17 22:00:00,55.3,1.6,29.75,North,355,6.0,7.0,11,0.00,,,0.00,Wunderground v.1.15,2013-03-18 04:00:00,
2013-03-17 22:02:00,55.0,1.3,29.75,NNW,348,6.0,7.0,11,0.00,,,0.00,Wunderground v.1.15,2013-03-18 04:02:00,
2013-03-17 22:03:00,55.0,1.3,29.75,North,350,7.0,7.0,11,0.00,,,0.00,Wunderground v.1.15,2013-03-18 04:03:00,
2013-03-17 22:04:00,54.9,1.3,29.75,North,350,6.0,7.0,11,0.00,,,0.00,Wunderground v.1.15,2013-03-18 04:04:00,
2013-03-17 22:09:00,54.6,1.0,29.75,NNW,348,6.0,7.0,11,0.00,,,0.00,Wunderground v.1.15,2013-03-18 04:09:00,
2013-03-17 22:15:00,54.1,2.5,29.75,NNW,348,5.0,6.0,12,0.00,,,0.00,Wunderground v.1.15,2013-03-18 04:15:00,
2013-03-17 22:20:00,53.5,2.0,29.75,NNW,348,5.0,6.0,12,0.00,,,0.00,Wunderground v.1.15,2013-03-18 04:20:00,
2013-03-17 22:26:00,53.1,1.7,29.75,NNW,348,4.0,6.0,12,0.00,,,0.00,Wunderground v.1.15,2013-03-18 04:26:00,
2013-03-17 22:31:00,52.6,3.1,29.75,NNW,348,3.0,4.0,13,0.00,,,0.00,Wunderground v.1.15,2013-03-18 04:31:00,
2013-03-17 22:37:00,51.6,2.3,29.76,NNW,348,3.0,4.0,13,0.00,,,0.00,Wunderground v.1.15,2013-03-18 04:37:00,
2013-03-17 22:43:00,51.1,3.5,29.76,NNW,331,4.0,8.0,14,0.00,,,0.00,Wunderground v.1.15,2013-03-18 04:43:00,
2013-03-17 22:48:00,51.0,3.4,29.77,NNW,331,5.0,8.0,14,0.00,,,0.00,Wunderground v.1.15,2013-03-18 04:48:00,
2013-03-17 22:54:00,51.0,3.4,29.77,NNW,332,5.0,6.0,14,0.00,,,0.00,Wunderground v.1.15,2013-03-18 04:54:00,
2013-03-17 23:00:00,51.0,3.4,29.77,NNW,332,4.0,4.0,14,0.00,,,0.00,Wunderground v.1.15,2013-03-18 05:00:00,
2013-03-17 23:06:00,51.0,3.4,29.77,NNW,332,4.0,5.0,14,0.00,,,0.00,Wunderground v.1.15,2013-03-18 05:06:00,
2013-03-17 23:11:00,50.7,3.1,29.77,NNW,332,3.0,5.0,14,0.00,,,0.00,Wunderground v.1.15,2013-03-18 05:11:00,
2013-03-17 23:17:00,50.4,2.9,29.77,NNW,333,5.0,8.0,14,0.00,,,0.00,Wunderground v.1.15,2013-03-18 05:17:00,
2013-03-17 23:22:00,50.6,3.1,29.78,NNW,333,5.0,8.0,14,0.00,,,0.00,Wunderground v.1.15,2013-03-18 05:22:00,
2013-03-17 23:28:00,50.7,3.1,29.78,NNW,336,5.0,8.0,14,0.00,,,0.00,Wunderground v.1.15,2013-03-18 05:28:00,
2013-03-17 23:34:00,50.8,1.6,29.78,NNW,336,5.0,5.0,13,0.00,,,0.00,Wunderground v.1.15,2013-03-18 05:34:00,
2013-03-17 23:40:00,50.6,1.5,29.78,NNW,336,5.0,5.0,13,0.00,,,0.00,Wunderground v.1.15,2013-03-18 05:40:00,
2013-03-17 23:46:00,50.4,1.3,29.78,NNW,336,5.0,7.0,13,0.00,,,0.00,Wunderground v.1.15,2013-03-18 05:46:00,
2013-03-17 23:51:00,50.4,1.3,29.79,NNW,333,5.0,6.0,13,0.00,,,0.00,Wunderground v.1.15,2013-03-18 05:51:00,
2013-03-17 23:56:00,50.3,1.2,29.79,NNW,328,6.0,8.0,13,0.00,,,0.00,Wunderground v.1.15,2013-03-18 05:56:00,